Year,Month,Day,Hour,Minute,Value (Times are PST for temperature in C)
2016,10,28,00,00,10.80
2016,10,28,00,01,10.80
2016,10,28,00,02,10.80
2016,10,28,00,03,10.80
2016,10,28,00,04,10.80
2016,10,28,00,05,10.80
2016,10,28,00,06,10.80
2016,10,28,00,07,10.80
2016,10,28,00,08,10.80
2016,10,28,00,09,10.80
2016,10,28,00,10,10.70
2016,10,28,00,11,10.70
2016,10,28,00,12,10.70
2016,10,28,00,13,10.70
2016,10,28,00,14,10.70
2016,10,28,00,15,10.70
2016,10,28,00,16,10.70
2016,10,28,00,17,10.70
2016,10,28,00,18,10.70
2016,10,28,00,19,10.70
2016,10,28,00,20,10.70
2016,10,28,00,21,10.70
2016,10,28,00,22,10.70
2016,10,28,00,23,10.70
2016,10,28,00,24,10.70
2016,10,28,00,25,10.70
2016,10,28,00,26,10.70
2016,10,28,00,27,10.70
2016,10,28,00,28,10.70
2016,10,28,00,29,10.70
2016,10,28,00,30,10.70
2016,10,28,00,31,10.70
2016,10,28,00,32,10.70
2016,10,28,00,33,10.70
2016,10,28,00,34,10.70
2016,10,28,00,35,10.70
2016,10,28,00,36,10.70
2016,10,28,00,37,10.70
2016,10,28,00,38,10.70
2016,10,28,00,39,10.70
2016,10,28,00,40,10.70
2016,10,28,00,41,10.70
2016,10,28,00,42,10.70
2016,10,28,00,43,10.70
2016,10,28,00,44,10.70
2016,10,28,00,45,10.70
2016,10,28,00,46,10.70
2016,10,28,00,47,10.70
2016,10,28,00,48,10.70
2016,10,28,00,49,10.70
2016,10,28,00,50,10.70
2016,10,28,00,51,10.60
2016,10,28,00,52,10.60
2016,10,28,00,53,10.60
2016,10,28,00,54,10.60
2016,10,28,00,55,10.60
2016,10,28,00,56,10.60
2016,10,28,00,57,10.60
2016,10,28,00,58,10.60
2016,10,28,00,59,10.60
2016,10,28,01,00,10.70
2016,10,28,01,01,10.70
2016,10,28,01,02,10.70
2016,10,28,01,03,10.70
2016,10,28,01,04,10.70
2016,10,28,01,05,10.70
2016,10,28,01,06,10.70
2016,10,28,01,07,10.70
2016,10,28,01,08,10.70
2016,10,28,01,09,10.70
2016,10,28,01,10,10.70
2016,10,28,01,11,10.70
2016,10,28,01,12,10.80
2016,10,28,01,13,10.70
2016,10,28,01,14,10.70
2016,10,28,01,15,10.70
2016,10,28,01,16,10.70
2016,10,28,01,17,10.70
2016,10,28,01,18,10.70
2016,10,28,01,19,10.70
2016,10,28,01,20,10.70
2016,10,28,01,21,10.70
2016,10,28,01,22,10.70
2016,10,28,01,23,10.70
2016,10,28,01,24,10.70
2016,10,28,01,25,10.70
2016,10,28,01,26,10.70
2016,10,28,01,27,10.70
2016,10,28,01,28,10.70
2016,10,28,01,29,10.70
2016,10,28,01,30,10.70
2016,10,28,01,31,10.80
2016,10,28,01,32,10.80
2016,10,28,01,33,10.80
2016,10,28,01,34,10.80
2016,10,28,01,35,10.80
2016,10,28,01,36,10.80
2016,10,28,01,37,10.80
2016,10,28,01,38,10.80
2016,10,28,01,39,10.80
2016,10,28,01,40,10.80
2016,10,28,01,41,10.80
2016,10,28,01,42,10.80
2016,10,28,01,43,10.80
2016,10,28,01,44,10.80
2016,10,28,01,45,10.80
2016,10,28,01,46,10.80
2016,10,28,01,47,10.80
2016,10,28,01,48,10.80
2016,10,28,01,49,10.80
2016,10,28,01,50,10.80
2016,10,28,01,51,10.80
2016,10,28,01,52,10.80
2016,10,28,01,53,10.80
2016,10,28,01,54,10.80
2016,10,28,01,55,10.80
2016,10,28,01,56,10.80
2016,10,28,01,57,10.80
2016,10,28,01,58,10.80
2016,10,28,01,59,10.80
2016,10,28,02,00,10.80
2016,10,28,02,01,10.80
2016,10,28,02,02,10.80
2016,10,28,02,03,10.80
2016,10,28,02,04,10.80
2016,10,28,02,05,10.80
2016,10,28,02,06,10.80
2016,10,28,02,07,10.80
2016,10,28,02,08,10.90
2016,10,28,02,09,10.90
2016,10,28,02,10,10.90
2016,10,28,02,11,10.90
2016,10,28,02,12,10.90
2016,10,28,02,13,10.90
2016,10,28,02,14,10.90
2016,10,28,02,15,10.90
2016,10,28,02,16,10.90
2016,10,28,02,17,10.90
2016,10,28,02,18,10.90
2016,10,28,02,19,10.90
2016,10,28,02,20,10.90
2016,10,28,02,21,10.90
2016,10,28,02,22,10.90
2016,10,28,02,23,10.90
2016,10,28,02,24,10.90
2016,10,28,02,25,10.90
2016,10,28,02,26,10.90
2016,10,28,02,27,10.90
2016,10,28,02,28,10.90
2016,10,28,02,29,10.90
2016,10,28,02,30,11.00
2016,10,28,02,31,11.00
2016,10,28,02,32,11.00
2016,10,28,02,33,11.00
2016,10,28,02,34,11.10
2016,10,28,02,35,11.10
2016,10,28,02,36,11.10
2016,10,28,02,37,11.10
2016,10,28,02,38,11.10
2016,10,28,02,39,11.10
2016,10,28,02,40,11.20
2016,10,28,02,41,11.20
2016,10,28,02,42,11.20
2016,10,28,02,43,11.20
2016,10,28,02,44,11.20
2016,10,28,02,45,11.20
2016,10,28,02,46,11.20
2016,10,28,02,47,11.20
2016,10,28,02,48,11.20
2016,10,28,02,49,11.20
2016,10,28,02,50,11.20
2016,10,28,02,51,11.20
2016,10,28,02,52,11.20
2016,10,28,02,53,11.20
2016,10,28,02,54,11.20
2016,10,28,02,55,11.20
2016,10,28,02,56,11.20
2016,10,28,02,57,11.20
2016,10,28,02,58,11.20
2016,10,28,02,59,11.20
2016,10,28,03,00,11.20
2016,10,28,03,01,11.20
2016,10,28,03,02,11.20
2016,10,28,03,03,11.20
2016,10,28,03,04,11.20
2016,10,28,03,05,11.20
2016,10,28,03,06,11.20
2016,10,28,03,07,11.20
2016,10,28,03,08,11.20
2016,10,28,03,09,11.20
2016,10,28,03,10,11.20
2016,10,28,03,11,11.20
2016,10,28,03,12,11.20
2016,10,28,03,13,11.20
2016,10,28,03,14,11.20
2016,10,28,03,15,11.20
2016,10,28,03,16,11.20
2016,10,28,03,17,11.20
2016,10,28,03,18,11.10
2016,10,28,03,19,11.10
2016,10,28,03,20,11.10
2016,10,28,03,21,11.10
2016,10,28,03,22,11.10
2016,10,28,03,23,11.10
2016,10,28,03,24,11.10
2016,10,28,03,25,11.10
2016,10,28,03,26,11.10
2016,10,28,03,27,11.10
2016,10,28,03,28,11.10
2016,10,28,03,29,11.10
2016,10,28,03,30,11.10
2016,10,28,03,31,11.10
2016,10,28,03,32,11.10
2016,10,28,03,33,11.10
2016,10,28,03,34,11.00
2016,10,28,03,35,11.00
2016,10,28,03,36,11.00
2016,10,28,03,37,11.00
2016,10,28,03,38,11.00
2016,10,28,03,39,10.90
2016,10,28,03,40,10.90
2016,10,28,03,41,10.90
2016,10,28,03,42,10.90
2016,10,28,03,43,10.80
2016,10,28,03,44,10.80
2016,10,28,03,45,10.80
2016,10,28,03,46,10.80
2016,10,28,03,47,10.70
2016,10,28,03,48,10.70
2016,10,28,03,49,10.70
2016,10,28,03,50,10.70
2016,10,28,03,51,10.60
2016,10,28,03,52,10.60
2016,10,28,03,53,10.60
2016,10,28,03,54,10.60
2016,10,28,03,55,10.60
2016,10,28,03,56,10.50
2016,10,28,03,57,10.50
2016,10,28,03,58,10.50
2016,10,28,03,59,10.50
2016,10,28,04,00,10.40
2016,10,28,04,01,10.40
2016,10,28,04,02,10.40
2016,10,28,04,03,10.40
2016,10,28,04,04,10.40
2016,10,28,04,05,10.40
2016,10,28,04,06,10.30
2016,10,28,04,07,10.30
2016,10,28,04,08,10.30
2016,10,28,04,09,10.30
2016,10,28,04,10,10.30
2016,10,28,04,11,10.20
2016,10,28,04,12,10.20
2016,10,28,04,13,10.20
2016,10,28,04,14,10.20
2016,10,28,04,15,10.10
2016,10,28,04,16,10.10
2016,10,28,04,17,10.10
2016,10,28,04,18,10.10
2016,10,28,04,19,10.10
2016,10,28,04,20,10.10
2016,10,28,04,21,10.10
2016,10,28,04,22,10.10
2016,10,28,04,23,10.10
2016,10,28,04,24,10.10
2016,10,28,04,25,10.10
2016,10,28,04,26,10.10
2016,10,28,04,27,10.10
2016,10,28,04,28,10.00
2016,10,28,04,29,10.00
2016,10,28,04,30,10.00
2016,10,28,04,31,10.00
2016,10,28,04,32,10.00
2016,10,28,04,33,9.90
2016,10,28,04,34,9.90
2016,10,28,04,35,9.90
2016,10,28,04,36,9.90
2016,10,28,04,37,9.90
2016,10,28,04,38,9.90
2016,10,28,04,39,9.90
2016,10,28,04,40,9.90
2016,10,28,04,41,9.90
2016,10,28,04,42,9.90
2016,10,28,04,43,9.90
2016,10,28,04,44,9.90
2016,10,28,04,45,9.90
2016,10,28,04,46,9.90
2016,10,28,04,47,9.90
2016,10,28,04,48,9.90
2016,10,28,04,49,9.90
2016,10,28,04,50,9.90
2016,10,28,04,51,9.90
2016,10,28,04,52,9.90
2016,10,28,04,53,10.00
2016,10,28,04,54,10.00
2016,10,28,04,55,10.00
2016,10,28,04,56,10.10
2016,10,28,04,57,10.10
2016,10,28,04,58,10.10
2016,10,28,04,59,10.10
2016,10,28,05,00,10.10
2016,10,28,05,01,10.10
2016,10,28,05,02,10.10
2016,10,28,05,03,10.10
2016,10,28,05,04,10.10
2016,10,28,05,05,10.10
2016,10,28,05,06,10.10
2016,10,28,05,07,10.10
2016,10,28,05,08,10.10
2016,10,28,05,09,10.10
2016,10,28,05,10,10.10
2016,10,28,05,11,10.10
2016,10,28,05,12,10.20
2016,10,28,05,13,10.20
2016,10,28,05,14,10.20
2016,10,28,05,15,10.20
2016,10,28,05,16,10.20
2016,10,28,05,17,10.30
2016,10,28,05,18,10.30
2016,10,28,05,19,10.30
2016,10,28,05,20,10.30
2016,10,28,05,21,10.30
2016,10,28,05,22,10.30
2016,10,28,05,23,10.30
2016,10,28,05,24,10.30
2016,10,28,05,25,10.40
2016,10,28,05,26,10.40
2016,10,28,05,27,10.40
2016,10,28,05,28,10.40
2016,10,28,05,29,10.40
2016,10,28,05,30,10.40
2016,10,28,05,31,10.40
2016,10,28,05,32,10.40
2016,10,28,05,33,10.40
2016,10,28,05,34,10.40
2016,10,28,05,35,10.40
2016,10,28,05,36,10.40
2016,10,28,05,37,10.40
2016,10,28,05,38,10.40
2016,10,28,05,39,10.40
2016,10,28,05,40,10.40
2016,10,28,05,41,10.40
2016,10,28,05,42,10.40
2016,10,28,05,43,10.40
2016,10,28,05,44,10.40
2016,10,28,05,45,10.50
2016,10,28,05,46,10.50
2016,10,28,05,47,10.50
2016,10,28,05,48,10.60
2016,10,28,05,49,10.60
2016,10,28,05,50,10.60
2016,10,28,05,51,10.60
2016,10,28,05,52,10.60
2016,10,28,05,53,10.60
2016,10,28,05,54,10.60
2016,10,28,05,55,10.60
2016,10,28,05,56,10.60
2016,10,28,05,57,10.60
2016,10,28,05,58,10.60
2016,10,28,05,59,10.60
2016,10,28,06,00,10.60
2016,10,28,06,01,10.60
2016,10,28,06,02,10.60
2016,10,28,06,03,10.70
2016,10,28,06,04,10.70
2016,10,28,06,05,10.70
2016,10,28,06,06,10.70
2016,10,28,06,07,10.70
2016,10,28,06,08,10.70
2016,10,28,06,09,10.70
2016,10,28,06,10,10.70
2016,10,28,06,11,10.70
2016,10,28,06,12,10.70
2016,10,28,06,13,10.70
2016,10,28,06,14,10.70
2016,10,28,06,15,10.70
2016,10,28,06,16,10.70
2016,10,28,06,17,10.70
2016,10,28,06,18,10.70
2016,10,28,06,19,10.70
2016,10,28,06,20,10.70
2016,10,28,06,21,10.70
2016,10,28,06,22,10.70
2016,10,28,06,23,10.70
2016,10,28,06,24,10.70
2016,10,28,06,25,10.70
2016,10,28,06,26,10.70
2016,10,28,06,27,10.70
2016,10,28,06,28,10.70
2016,10,28,06,29,10.70
2016,10,28,06,30,10.70
2016,10,28,06,31,10.70
2016,10,28,06,32,10.70
2016,10,28,06,33,10.70
2016,10,28,06,34,10.70
2016,10,28,06,35,10.70
2016,10,28,06,36,10.70
2016,10,28,06,37,10.70
2016,10,28,06,38,10.70
2016,10,28,06,39,10.70
2016,10,28,06,40,10.70
2016,10,28,06,41,10.70
2016,10,28,06,42,10.70
2016,10,28,06,43,10.70
2016,10,28,06,44,10.70
2016,10,28,06,45,10.70
2016,10,28,06,46,10.70
2016,10,28,06,47,10.70
2016,10,28,06,48,10.60
2016,10,28,06,49,10.60
2016,10,28,06,50,10.60
2016,10,28,06,51,10.60
2016,10,28,06,52,10.50
2016,10,28,06,53,10.50
2016,10,28,06,54,10.50
2016,10,28,06,55,10.50
2016,10,28,06,56,10.50
2016,10,28,06,57,10.50
2016,10,28,06,58,10.50
2016,10,28,06,59,10.50
2016,10,28,07,00,10.50
2016,10,28,07,01,10.50
2016,10,28,08,59,10.70
2016,10,28,09,00,10.70
2016,10,28,09,01,10.70
2016,10,28,09,02,10.70
2016,10,28,09,03,10.80
2016,10,28,09,04,10.80
2016,10,28,09,05,10.80
2016,10,28,09,06,10.80
2016,10,28,09,07,10.80
2016,10,28,09,08,10.80
2016,10,28,09,09,10.80
2016,10,28,09,10,10.80
2016,10,28,09,11,10.80
2016,10,28,09,12,10.80
2016,10,28,09,13,10.80
2016,10,28,09,14,10.80
2016,10,28,09,15,10.80
2016,10,28,09,16,10.90
2016,10,28,09,17,10.90
2016,10,28,09,18,10.90
2016,10,28,09,19,10.90
2016,10,28,09,20,10.90
2016,10,28,09,21,10.90
2016,10,28,09,22,10.90
2016,10,28,09,23,10.90
2016,10,28,09,24,10.90
2016,10,28,09,25,11.00
2016,10,28,09,26,11.00
2016,10,28,09,27,11.00
2016,10,28,09,28,11.10
2016,10,28,09,29,11.10
2016,10,28,09,30,11.10
2016,10,28,09,31,11.10
2016,10,28,09,32,11.20
2016,10,28,09,33,11.20
2016,10,28,09,34,11.20
2016,10,28,09,35,11.20
2016,10,28,09,36,11.20
2016,10,28,09,37,11.20
2016,10,28,09,38,11.20
2016,10,28,09,39,11.20
2016,10,28,09,40,11.30
2016,10,28,09,41,11.30
2016,10,28,09,42,11.30
2016,10,28,09,43,11.30
2016,10,28,09,44,11.30
2016,10,28,09,45,11.30
2016,10,28,09,46,11.30
2016,10,28,09,47,11.30
2016,10,28,09,48,11.30
2016,10,28,09,49,11.30
2016,10,28,09,50,11.30
2016,10,28,09,51,11.30
2016,10,28,09,52,11.30
2016,10,28,09,53,11.30
2016,10,28,09,54,11.30
2016,10,28,09,55,11.30
2016,10,28,09,56,11.30
2016,10,28,09,57,11.30
2016,10,28,09,58,11.30
2016,10,28,09,59,11.30
2016,10,28,10,00,11.30
2016,10,28,10,01,11.40
2016,10,28,10,02,11.40
2016,10,28,10,03,11.40
2016,10,28,10,04,11.40
2016,10,28,10,05,11.40
2016,10,28,10,06,11.40
2016,10,28,10,07,11.40
2016,10,28,10,08,11.40
2016,10,28,10,09,11.40
2016,10,28,10,10,11.40
2016,10,28,10,11,11.40
2016,10,28,10,12,11.40
2016,10,28,10,13,11.40
2016,10,28,10,14,11.40
2016,10,28,10,15,11.40
2016,10,28,10,16,11.40
2016,10,28,10,17,11.50
2016,10,28,10,18,11.50
2016,10,28,10,19,11.60
2016,10,28,10,20,11.60
2016,10,28,10,21,11.60
2016,10,28,10,22,11.60
2016,10,28,10,23,11.60
2016,10,28,10,24,11.60
2016,10,28,10,25,11.60
2016,10,28,10,26,11.60
2016,10,28,10,27,11.60
2016,10,28,10,28,11.60
2016,10,28,10,29,11.60
2016,10,28,10,30,11.60
2016,10,28,10,31,11.60
2016,10,28,10,32,11.60
2016,10,28,10,33,11.60
2016,10,28,10,34,11.70
2016,10,28,10,35,11.70
2016,10,28,10,36,11.70
2016,10,28,10,37,11.70
2016,10,28,10,38,11.80
2016,10,28,10,39,11.80
2016,10,28,10,40,11.90
2016,10,28,10,41,11.90
2016,10,28,10,42,11.90
2016,10,28,10,43,11.90
2016,10,28,10,44,12.00
2016,10,28,10,45,12.00
2016,10,28,10,46,12.10
2016,10,28,10,47,12.20
2016,10,28,10,48,12.20
2016,10,28,10,49,12.20
2016,10,28,10,50,12.10
2016,10,28,10,51,12.10
2016,10,28,10,52,12.10
2016,10,28,10,53,12.10
2016,10,28,10,54,12.10
2016,10,28,10,55,12.20
2016,10,28,10,56,12.20
2016,10,28,10,57,12.30
2016,10,28,10,58,12.30
2016,10,28,10,59,12.30
2016,10,28,11,00,12.30
2016,10,28,11,01,12.30
2016,10,28,11,02,12.30
2016,10,28,11,03,12.40
2016,10,28,11,04,12.40
2016,10,28,11,05,12.30
2016,10,28,11,06,12.30
2016,10,28,11,07,12.20
2016,10,28,11,08,12.10
2016,10,28,11,09,12.10
2016,10,28,11,10,12.10
2016,10,28,11,11,12.20
2016,10,28,11,12,12.20
2016,10,28,11,13,12.20
2016,10,28,11,14,12.20
2016,10,28,11,15,12.20
2016,10,28,11,16,12.30
2016,10,28,11,17,12.30
2016,10,28,11,18,12.30
2016,10,28,11,19,12.30
2016,10,28,11,20,12.30
2016,10,28,11,21,12.20
2016,10,28,11,22,12.20
2016,10,28,11,23,12.30
2016,10,28,11,24,12.30
2016,10,28,11,25,12.30
2016,10,28,11,26,12.40
2016,10,28,11,27,12.40
2016,10,28,11,28,12.40
2016,10,28,11,29,12.50
2016,10,28,11,30,12.50
2016,10,28,11,31,12.60
2016,10,28,11,32,12.60
2016,10,28,11,33,12.60
2016,10,28,11,34,12.60
2016,10,28,11,35,12.60
2016,10,28,11,36,12.60
2016,10,28,11,37,12.70
2016,10,28,11,38,12.70
2016,10,28,11,39,12.80
2016,10,28,11,40,12.80
2016,10,28,11,41,12.80
2016,10,28,11,42,12.80
2016,10,28,11,43,12.80
2016,10,28,11,44,12.80
2016,10,28,11,45,12.80
2016,10,28,11,46,12.80
2016,10,28,11,47,12.80
2016,10,28,11,48,12.80
2016,10,28,11,49,12.80
2016,10,28,11,50,12.80
2016,10,28,11,51,12.80
2016,10,28,11,52,12.80
2016,10,28,11,53,12.80
2016,10,28,11,54,12.80
2016,10,28,11,55,12.80
2016,10,28,11,56,12.90
2016,10,28,11,57,13.00
2016,10,28,11,58,13.00
2016,10,28,11,59,13.00
2016,10,28,12,00,13.10
2016,10,28,12,01,13.10
2016,10,28,12,02,13.10
2016,10,28,12,03,13.10
2016,10,28,12,04,13.10
2016,10,28,12,05,13.10
2016,10,28,12,06,13.10
2016,10,28,12,07,13.10
2016,10,28,12,08,13.10
2016,10,28,12,09,13.00
2016,10,28,12,10,13.00
2016,10,28,12,11,13.10
2016,10,28,12,12,13.10
2016,10,28,12,13,13.10
2016,10,28,12,14,13.10
2016,10,28,12,15,13.20
2016,10,28,12,16,13.20
2016,10,28,12,17,13.20
2016,10,28,12,18,13.30
2016,10,28,12,19,13.40
2016,10,28,12,20,13.40
2016,10,28,12,21,13.30
2016,10,28,12,22,13.20
2016,10,28,12,23,13.20
2016,10,28,12,24,13.20
2016,10,28,12,25,13.20
2016,10,28,12,26,13.20
2016,10,28,12,27,13.20
2016,10,28,12,28,13.30
2016,10,28,12,29,13.30
2016,10,28,12,30,13.30
2016,10,28,12,31,13.30
2016,10,28,12,32,13.30
2016,10,28,12,33,13.30
2016,10,28,12,34,13.30
2016,10,28,12,35,13.30
2016,10,28,12,36,13.40
2016,10,28,12,37,13.40
2016,10,28,12,38,13.40
2016,10,28,12,39,13.40
2016,10,28,12,40,13.40
2016,10,28,12,41,13.50
2016,10,28,12,42,13.50
2016,10,28,12,43,13.60
2016,10,28,12,44,13.70
2016,10,28,12,45,13.80
2016,10,28,12,46,13.80
2016,10,28,12,47,13.90
2016,10,28,12,48,13.90
2016,10,28,12,49,14.00
2016,10,28,12,50,14.00
2016,10,28,12,51,14.00
2016,10,28,12,52,13.90
2016,10,28,12,53,13.90
2016,10,28,12,54,13.80
2016,10,28,12,55,13.90
2016,10,28,12,56,13.90
2016,10,28,12,57,14.00
2016,10,28,12,58,14.00
2016,10,28,12,59,13.90
2016,10,28,13,00,14.00
2016,10,28,13,01,14.00
2016,10,28,13,02,13.90
2016,10,28,13,03,14.00
2016,10,28,13,04,14.00
2016,10,28,13,05,13.90
2016,10,28,13,06,14.00
2016,10,28,13,07,14.00
2016,10,28,13,08,14.00
2016,10,28,13,09,13.90
2016,10,28,13,10,13.90
2016,10,28,13,11,13.90
2016,10,28,13,12,13.90
2016,10,28,13,13,13.90
2016,10,28,13,14,13.90
2016,10,28,13,15,13.80
2016,10,28,13,16,13.80
2016,10,28,13,17,13.70
2016,10,28,13,18,13.70
2016,10,28,13,19,13.70
2016,10,28,13,20,13.70
2016,10,28,13,21,13.70
2016,10,28,13,22,13.70
2016,10,28,13,23,13.80
2016,10,28,13,24,13.80
2016,10,28,13,25,13.80
2016,10,28,13,26,13.80
2016,10,28,13,27,13.90
2016,10,28,13,28,13.90
2016,10,28,13,29,13.90
2016,10,28,13,30,13.90
2016,10,28,13,31,14.00
2016,10,28,13,32,14.00
2016,10,28,13,33,14.00
2016,10,28,13,34,14.00
2016,10,28,13,35,14.10
2016,10,28,13,36,14.10
2016,10,28,13,37,14.00
2016,10,28,13,38,14.00
2016,10,28,13,39,14.00
2016,10,28,13,40,14.00
2016,10,28,13,41,14.00
2016,10,28,13,42,14.00
2016,10,28,13,43,14.10
2016,10,28,13,44,14.10
2016,10,28,13,45,14.20
2016,10,28,13,46,14.20
2016,10,28,13,47,14.20
2016,10,28,13,48,14.20
2016,10,28,13,49,14.30
2016,10,28,13,50,14.30
2016,10,28,13,51,14.30
2016,10,28,13,52,14.30
2016,10,28,13,53,14.30
2016,10,28,13,54,14.30
2016,10,28,13,55,14.30
2016,10,28,13,56,14.30
2016,10,28,13,57,14.30
2016,10,28,13,58,14.40
2016,10,28,13,59,14.40
2016,10,28,14,00,14.40
2016,10,28,14,01,14.40
2016,10,28,14,02,14.40
2016,10,28,14,03,14.40
2016,10,28,14,04,14.50
2016,10,28,14,05,14.60
2016,10,28,14,06,14.60
2016,10,28,14,07,14.60
2016,10,28,14,08,14.60
2016,10,28,14,09,14.60
2016,10,28,14,10,14.70
2016,10,28,14,11,14.70
2016,10,28,14,12,14.70
2016,10,28,14,13,14.60
2016,10,28,14,14,14.60
2016,10,28,14,15,14.60
2016,10,28,14,16,14.60
2016,10,28,14,17,14.50
2016,10,28,14,18,14.50
2016,10,28,14,19,14.50
2016,10,28,14,20,14.50
2016,10,28,14,21,14.50
2016,10,28,14,22,14.50
2016,10,28,14,23,14.50
2016,10,28,14,24,14.60
2016,10,28,14,25,14.60
2016,10,28,14,26,14.70
2016,10,28,14,27,14.70
2016,10,28,14,28,14.70
2016,10,28,14,29,14.70
2016,10,28,14,30,14.80
2016,10,28,14,31,14.70
2016,10,28,14,32,14.70
2016,10,28,14,33,14.70
2016,10,28,14,34,14.70
2016,10,28,14,35,14.80
2016,10,28,14,36,14.80
2016,10,28,14,37,14.80
2016,10,28,14,38,14.70
2016,10,28,14,39,14.70
2016,10,28,14,40,14.80
2016,10,28,14,41,14.90
2016,10,28,14,42,14.90
2016,10,28,14,43,14.80
2016,10,28,14,44,14.70
2016,10,28,14,45,14.70
2016,10,28,14,46,14.70
2016,10,28,14,47,14.70
2016,10,28,14,48,14.70
2016,10,28,14,49,14.70
2016,10,28,14,50,14.70
2016,10,28,14,51,14.70
2016,10,28,14,52,14.60
2016,10,28,14,53,14.60
2016,10,28,14,54,14.60
2016,10,28,14,55,14.60
2016,10,28,14,56,14.60
2016,10,28,14,57,14.60
2016,10,28,14,58,14.60
2016,10,28,14,59,14.60
2016,10,28,15,00,14.70
2016,10,28,15,01,14.70
2016,10,28,15,02,14.70
2016,10,28,15,03,14.70
2016,10,28,15,04,14.80
2016,10,28,15,05,14.80
2016,10,28,15,06,14.80
2016,10,28,15,07,14.90
2016,10,28,15,08,14.90
2016,10,28,15,09,14.90
2016,10,28,15,10,14.90
2016,10,28,15,11,14.90
2016,10,28,15,12,14.90
2016,10,28,15,13,15.00
2016,10,28,15,14,15.00
2016,10,28,15,15,15.00
2016,10,28,15,16,15.00
2016,10,28,15,17,15.00
2016,10,28,15,18,15.00
2016,10,28,15,19,15.00
2016,10,28,15,20,15.00
2016,10,28,15,21,15.00
2016,10,28,15,22,15.00
2016,10,28,15,23,15.00
2016,10,28,15,24,15.00
2016,10,28,15,25,15.00
2016,10,28,15,26,15.00
2016,10,28,15,27,15.00
2016,10,28,15,28,15.00
2016,10,28,15,29,15.00
2016,10,28,15,30,15.00
2016,10,28,15,31,15.00
2016,10,28,15,32,14.90
2016,10,28,15,33,14.70
2016,10,28,15,34,14.70
2016,10,28,15,35,14.70
2016,10,28,15,36,14.70
2016,10,28,15,37,14.70
2016,10,28,15,38,14.80
2016,10,28,15,39,14.80
2016,10,28,15,40,14.80
2016,10,28,15,41,14.80
2016,10,28,15,42,14.80
2016,10,28,15,43,14.70
2016,10,28,15,44,14.60
2016,10,28,15,45,14.60
2016,10,28,15,46,14.60
2016,10,28,15,47,14.60
2016,10,28,15,48,14.60
2016,10,28,15,49,14.50
2016,10,28,15,50,14.50
2016,10,28,15,51,14.50
2016,10,28,15,52,14.40
2016,10,28,15,53,14.40
2016,10,28,15,54,14.40
2016,10,28,15,55,14.30
2016,10,28,15,56,14.30
2016,10,28,15,57,14.30
2016,10,28,15,58,14.20
2016,10,28,15,59,14.20
2016,10,28,16,00,14.10
2016,10,28,16,01,14.10
2016,10,28,16,02,14.10
2016,10,28,16,03,14.00
2016,10,28,16,04,13.90
2016,10,28,16,05,13.90
2016,10,28,16,06,13.80
2016,10,28,16,07,13.70
2016,10,28,16,08,13.60
2016,10,28,16,09,13.60
2016,10,28,16,10,13.60
2016,10,28,16,11,13.50
2016,10,28,16,12,13.50
2016,10,28,16,13,13.40
2016,10,28,16,14,13.40
2016,10,28,16,15,13.30
2016,10,28,16,16,13.30
2016,10,28,16,17,13.20
2016,10,28,16,18,13.20
2016,10,28,16,19,13.20
2016,10,28,16,20,13.20
2016,10,28,16,21,13.10
2016,10,28,16,22,13.10
2016,10,28,16,23,13.10
2016,10,28,16,24,13.10
2016,10,28,16,25,13.10
2016,10,28,16,26,13.10
2016,10,28,16,27,13.10
2016,10,28,16,28,13.10
2016,10,28,16,29,13.10
2016,10,28,16,30,13.10
2016,10,28,16,31,13.10
2016,10,28,16,32,13.10
2016,10,28,16,33,13.10
2016,10,28,16,34,13.10
2016,10,28,16,35,13.10
2016,10,28,16,36,13.10
2016,10,28,16,37,13.10
2016,10,28,16,38,13.20
2016,10,28,16,39,13.20
2016,10,28,16,40,13.20
2016,10,28,16,41,13.20
2016,10,28,16,42,13.20
2016,10,28,16,43,13.20
2016,10,28,16,44,13.10
2016,10,28,16,45,13.10
2016,10,28,16,46,13.10
2016,10,28,16,47,13.10
2016,10,28,16,48,13.10
2016,10,28,16,49,13.00
2016,10,28,16,50,13.00
2016,10,28,16,51,13.00
2016,10,28,16,52,12.90
2016,10,28,16,53,12.90
2016,10,28,16,54,12.90
2016,10,28,16,55,12.90
2016,10,28,16,56,12.90
2016,10,28,16,57,12.90
2016,10,28,16,58,12.90
2016,10,28,16,59,12.90
2016,10,28,17,00,12.90
2016,10,28,17,01,12.90
2016,10,28,17,02,12.90
2016,10,28,17,03,12.90
2016,10,28,17,04,12.90
2016,10,28,17,05,12.90
2016,10,28,17,06,12.90
2016,10,28,17,07,12.90
2016,10,28,17,08,12.90
2016,10,28,17,09,12.90
2016,10,28,17,10,12.90
2016,10,28,17,11,12.90
2016,10,28,17,12,12.90
2016,10,28,17,13,12.90
2016,10,28,17,14,12.90
2016,10,28,17,15,12.90
2016,10,28,17,16,12.80
2016,10,28,17,17,12.80
2016,10,28,17,18,12.80
2016,10,28,17,19,12.80
2016,10,28,17,20,12.80
2016,10,28,17,21,12.80
2016,10,28,17,22,12.80
2016,10,28,17,23,12.70
2016,10,28,17,24,12.70
2016,10,28,17,25,12.70
2016,10,28,17,26,12.70
2016,10,28,17,27,12.60
2016,10,28,17,28,12.60
2016,10,28,17,29,12.60
2016,10,28,17,30,12.60
2016,10,28,17,31,12.50
2016,10,28,17,32,12.50
2016,10,28,17,33,12.50
2016,10,28,17,34,12.40
2016,10,28,17,35,12.40
2016,10,28,17,36,12.40
2016,10,28,17,37,12.40
2016,10,28,17,38,12.30
2016,10,28,17,39,12.30
2016,10,28,17,40,12.30
2016,10,28,17,41,12.20
2016,10,28,17,42,12.20
2016,10,28,17,43,12.20
2016,10,28,17,44,12.20
2016,10,28,17,45,12.10
2016,10,28,17,46,12.10
2016,10,28,17,47,12.10
2016,10,28,17,48,12.10
2016,10,28,17,49,12.00
2016,10,28,17,50,12.00
2016,10,28,17,51,12.00
2016,10,28,17,52,11.90
2016,10,28,17,53,11.90
2016,10,28,17,54,11.90
2016,10,28,17,55,11.90
2016,10,28,17,56,11.90
2016,10,28,17,57,11.80
2016,10,28,17,58,11.80
2016,10,28,17,59,11.80
2016,10,28,18,00,11.80
2016,10,28,18,01,11.80
2016,10,28,18,02,11.70
2016,10,28,18,03,11.70
2016,10,28,18,04,11.70
2016,10,28,18,05,11.70
2016,10,28,18,06,11.70
2016,10,28,18,07,11.70
2016,10,28,18,08,11.70
2016,10,28,18,09,11.70
2016,10,28,18,10,11.60
2016,10,28,18,11,11.60
2016,10,28,18,12,11.60
2016,10,28,18,13,11.60
2016,10,28,18,14,11.60
2016,10,28,18,15,11.60
2016,10,28,18,16,11.50
2016,10,28,18,17,11.50
2016,10,28,18,18,11.50
2016,10,28,18,19,11.40
2016,10,28,18,20,11.40
2016,10,28,18,21,11.40
2016,10,28,18,22,11.40
2016,10,28,18,23,11.40
2016,10,28,18,24,11.40
2016,10,28,18,25,11.40
2016,10,28,18,26,11.30
2016,10,28,18,27,11.30
2016,10,28,18,28,11.30
2016,10,28,18,29,11.30
2016,10,28,18,30,11.40
2016,10,28,18,31,11.40
2016,10,28,18,32,11.40
2016,10,28,18,33,11.40
2016,10,28,18,34,11.30
2016,10,28,18,35,11.30
2016,10,28,18,36,11.30
2016,10,28,18,37,11.30
2016,10,28,18,38,11.30
2016,10,28,18,39,11.30
2016,10,28,18,40,11.30
2016,10,28,18,41,11.30
2016,10,28,18,42,11.30
2016,10,28,18,43,11.30
2016,10,28,18,44,11.30
2016,10,28,18,45,11.30
2016,10,28,18,46,11.20
2016,10,28,18,47,11.20
2016,10,28,18,48,11.20
2016,10,28,18,49,11.20
2016,10,28,18,50,11.20
2016,10,28,18,51,11.10
2016,10,28,18,52,11.10
2016,10,28,18,53,11.10
2016,10,28,18,54,11.10
2016,10,28,18,55,11.10
2016,10,28,18,56,11.00
2016,10,28,18,57,11.00
2016,10,28,18,58,11.00
2016,10,28,18,59,11.00
2016,10,28,19,00,11.00
2016,10,28,19,01,11.00
2016,10,28,19,02,11.00
2016,10,28,19,03,11.00
2016,10,28,19,04,11.00
2016,10,28,19,05,11.00
2016,10,28,19,06,11.00
2016,10,28,19,07,10.90
2016,10,28,19,08,10.90
2016,10,28,19,09,10.90
2016,10,28,19,10,10.90
2016,10,28,19,11,10.90
2016,10,28,19,12,10.90
2016,10,28,19,13,10.90
2016,10,28,19,14,10.90
2016,10,28,19,15,10.80
2016,10,28,19,16,10.80
2016,10,28,19,17,10.80